"Pseudo-MPEC" for S520729

Created 2022 Aug 14 17:22:23 UT using Find_Orb

Click here for an explanation of pseudo-MPECs

 
 Astrometry: 
     S520729*KC2022 07 25.32254322 47 41.406-14 09 09.71   ~7PI7 20.2 GXNEOCPY00
     S520729 KC2022 07 25.32885522 47 41.297-14 08 52.67   ~7PI7 20.3 GXNEOCPY00
     S520729 KC2022 07 25.33513922 47 41.093-14 08 35.73   ~7PI7 20.4 GXNEOCPY00

Station data:
(Y00) SONEAR Observatory, Oliveira  (S20.715080 W44.784960)  Brazil.
   Observers C. Jacques, E. Pimentel, J. Barros. Measurer C. Jacques. 0.45-m
   f/2.9 astrograph + CCD.

Orbital elements:  S520729
   Perihelion 2022 Jul 5.28166 +/- 40.3 TT =  6:45:35 (JD 2459765.78166)
Epoch 2022 Jul 25.0 TT = JDT 2459785.5   Earth MOID: 0.2658   Ma: 0.0931
M   4.99926500 +/- 34               (J2000 ecliptic)          AutoNEOCP
n   0.25353380 +/- 0.339            Peri.  336.55157 +/- 80
a   2.47236241 +/- 2.21             Node   316.97143 +/- 28
e   0.4867321 +/- 0.261             Incl.   12.72742 +/- 12
P   3.89                   H 21.3   G  0.15   U 12.0  SR
q 1.26898420 +/- 0.471    Q 3.67574062 +/- 34
From 3 observations 2022 July 25 (18.1 min); mean residual 0".24
Residuals in arcseconds: 
220725 Y00  .23-  .00     220725 Y00  .47+  .01+    220725 Y00  .24-  .01-    

Ephemerides (geocentric):
Date (UTC) HH   RA             Dec           delta  r     elong  mag " sig PA
---- --------  ------------   ------------  ------ ------ -----  --- --------
2022 08 14 17  22 32 45.243   -00 28 35.44  .34089 1.3388 160.3 20.4  84d   5
2022 08 14 18  22 32 42.671   -00 27 12.25  .34099 1.3389 160.3 20.4  84d   5
2022 08 14 19  22 32 40.097   -00 25 49.16  .34110 1.3390 160.3 20.4  84d   5
2022 08 14 20  22 32 37.522   -00 24 26.17  .34121 1.3392 160.4 20.4  84d   5
2022 08 14 21  22 32 34.946   -00 23 03.26  .34131 1.3393 160.4 20.4  84d   5
2022 08 14 22  22 32 32.370   -00 21 40.45  .34142 1.3395 160.4 20.4  84d   5
2022 08 14 23  22 32 29.792   -00 20 17.73  .34153 1.3396 160.4 20.4  84d   5
2022 08 15 00  22 32 27.212   -00 18 55.11  .34164 1.3397 160.5 20.4  84d   5
2022 08 15 01  22 32 24.632   -00 17 32.57  .34175 1.3399 160.5 20.4  84d   5
2022 08 15 02  22 32 22.051   -00 16 10.14  .34185 1.3400 160.5 20.5  84d   5
2022 08 15 03  22 32 19.469   -00 14 47.79  .34196 1.3401 160.5 20.5  84d   5
2022 08 15 04  22 32 16.885   -00 13 25.54  .34207 1.3403 160.6 20.5  84d   5
2022 08 15 05  22 32 14.301   -00 12 03.39  .34218 1.3404 160.6 20.5  84d   5
2022 08 15 06  22 32 11.716   -00 10 41.32  .34229 1.3406 160.6 20.5  84d   5
2022 08 15 07  22 32 09.129   -00 09 19.35  .34240 1.3407 160.6 20.5  84d   5
2022 08 15 08  22 32 06.542   -00 07 57.48  .34251 1.3408 160.7 20.5  84d   5
2022 08 15 09  22 32 03.954   -00 06 35.70  .34262 1.3410 160.7 20.5  84d   5
2022 08 15 10  22 32 01.364   -00 05 14.01  .34273 1.3411 160.7 20.5  84d   5
2022 08 15 11  22 31 58.774   -00 03 52.42  .34284 1.3413 160.8 20.5  84d   5
2022 08 15 12  22 31 56.183   -00 02 30.92  .34295 1.3414 160.8 20.5  84d   5
2022 08 15 13  22 31 53.591   -00 01 09.52  .34307 1.3415 160.8 20.5  84d   5
2022 08 15 14  22 31 50.998   +00 00 11.79  .34318 1.3417 160.8 20.5  84d   5
2022 08 15 15  22 31 48.404   +00 01 33.00  .34329 1.3418 160.9 20.5  84d   5
2022 08 15 16  22 31 45.809   +00 02 54.12  .34340 1.3420 160.9 20.5  84d   5
2022 08 15 17  22 31 43.214   +00 04 15.15  .34351 1.3421 160.9 20.5  84d   5
2022 08 15 18  22 31 40.617   +00 05 36.08  .34363 1.3422 160.9 20.5  84d   5
2022 08 15 19  22 31 38.020   +00 06 56.91  .34374 1.3424 161.0 20.5  84d   5
2022 08 15 20  22 31 35.421   +00 08 17.65  .34385 1.3425 161.0 20.5  84d   5
2022 08 15 21  22 31 32.822   +00 09 38.29  .34397 1.3427 161.0 20.5  84d   5
2022 08 15 22  22 31 30.222   +00 10 58.84  .34408 1.3428 161.0 20.5  84d   5
2022 08 15 23  22 31 27.622   +00 12 19.30  .34419 1.3429 161.1 20.5  84d   5
2022 08 16 00  22 31 25.020   +00 13 39.66  .34431 1.3431 161.1 20.5  84d   5
2022 08 16 01  22 31 22.418   +00 14 59.92  .34442 1.3432 161.1 20.5  84d   5
2022 08 16 02  22 31 19.815   +00 16 20.09  .34454 1.3434 161.1 20.5  84d   5
2022 08 16 03  22 31 17.211   +00 17 40.16  .34465 1.3435 161.2 20.5  84d   5
2022 08 16 04  22 31 14.606   +00 19 00.14  .34477 1.3436 161.2 20.5  84d   5
2022 08 16 05  22 31 12.001   +00 20 20.02  .34488 1.3438 161.2 20.5  84d   5
2022 08 16 06  22 31 09.395   +00 21 39.80  .34500 1.3439 161.2 20.5  84d   5
2022 08 16 07  22 31 06.788   +00 22 59.49  .34512 1.3441 161.3 20.5  84d   5
2022 08 16 08  22 31 04.181   +00 24 19.09  .34523 1.3442 161.3 20.5  84d   5
2022 08 16 09  22 31 01.573   +00 25 38.58  .34535 1.3444 161.3 20.5  84d   5
2022 08 16 10  22 30 58.964   +00 26 57.99  .34547 1.3445 161.3 20.5  84d   5
2022 08 16 11  22 30 56.354   +00 28 17.29  .34558 1.3446 161.4 20.5  84d   5
2022 08 16 12  22 30 53.744   +00 29 36.50  .34570 1.3448 161.4 20.5  84d   5
2022 08 16 13  22 30 51.133   +00 30 55.62  .34582 1.3449 161.4 20.5  84d   5
2022 08 16 14  22 30 48.522   +00 32 14.63  .34594 1.3451 161.4 20.5  84d   5
2022 08 16 15  22 30 45.910   +00 33 33.55  .34606 1.3452 161.5 20.5  84d   5
2022 08 16 16  22 30 43.297   +00 34 52.38  .34617 1.3454 161.5 20.5  84d   5